Regional Weather Roundup
Issued by NWS

Home | Current Version | Previous Version | Graphics & Text | Print | Product List | Glossary On
Versions: 1 2 3 4 5 6 7 8 9 10 11 12 13 14 15 16 17 18 19 20 21 22 23 24 25 26 27 28 29 30 31 32 33 34 35 36 37 38 39 40 41 42 43 44 45 46 47 48 49 50
000
ASUS45 KABQ 280601
RWRNM
NEW MEXICO REGIONAL WEATHER ROUNDUP
NATIONAL WEATHER SERVICE ALBUQUERQUE NM
1200 AM MDT FRI JUL 28 2017

NOTE: "FAIR" MEANS FEW OR NO CLOUDS BELOW 12,000 FEET AGL WITH NO
       SIGNIFICANT WEATHER OR OBSTRUCTIONS TO VISION.

      THIS PRODUCT IS RELEASED AS TWO VERSIONS.  ONE VERSION NEAR
      THE TOP OF THE HOUR CONTAINING PRELIMINARY DATA FROM ALBUQUERQUE
      AND OTHER STATIONS.  A FINAL VERSION WITH ADDITIONAL DATA IS
      ISSUED ABOUT 10 MINUTES AFTER THE HOUR.

NMZ501-503-504-510>518-280700-
NORTHWEST PLATEAU/NORTHCENTRAL MOUNTAINS

CITY           SKY/WX    TMP DP  RH WIND       PRES   REMARKS
FARMINGTON     LGT RAIN  72  57  59 SW7       30.18S
6HR MIN TEMP:  72; 6HR MAX TEMP:  88; 6HR PCP: TRACE;

LOS ALAMOS     CLOUDY    62  55  78 SW8G16    30.35S
SANTA FE       LGT RAIN  63  63 100 NW6       30.29R
6HR MIN TEMP:  63; 6HR MAX TEMP:  68; 6HR PCP:  0.13;

TAOS           FAIR      63  48  59 E7        30.34R
ANGEL FIRE     FAIR      53  52  95 CALM      30.44S

$$
NMZ402-403-502-505>509-280700-
WESTCENTRAL MOUNTAINS/SOUTHWEST MOUNTAINS

CITY           SKY/WX    TMP DP  RH WIND       PRES   REMARKS
GALLUP         FAIR      63  59  87 S3        30.30F
6HR MIN TEMP:  63; 6HR MAX TEMP:  71;

GRANTS         CLOUDY    61  59  92 W5        30.34F
SILVER CITY    LGT RAIN  69  58  67 W9        30.23R

$$
NMZ407-409-411-412-280700-
SOUTHERN DESERTS

CITY           SKY/WX    TMP DP  RH WIND       PRES   REMARKS
DEMING         FAIR      72  64  76 W9        30.13R
6HR MIN TEMP:  72; 6HR MAX TEMP:  86;

LAS CRUCES     CLOUDY    72  59  63 W6        30.13R
ALAMOGORDO     FAIR      73  61  64 NW9G18    30.11R
T OR C         LGT RAIN  70  65  84 NE10      30.19R
6HR MIN TEMP:  70; 6HR MAX TEMP:  86; 6HR PCP:  0.01;


$$
NMZ519>523-280700-
CENTRAL VALLEYS/CENTRAL HIGHLANDS

CITY           SKY/WX    TMP DP  RH WIND       PRES   REMARKS
ALBUQUERQUE    MOCLDY    69  61  75 E9        30.23S
6HR MIN TEMP:  68; 6HR MAX TEMP:  89; 6HR PCP:  0.02;

DOUBLE EAGLE   MOCLDY    67  60  77 W5        30.28R
CLINES CORNERS CLOUDY    59  56  89 E8        30.34R
6HR MIN TEMP:  58; 6HR MAX TEMP:  67; 6HR PCP:  1.27;

BELEN          NOT AVBL
SOCORRO        CLOUDY    67  63  87 W6        30.21S
6HR MIN TEMP:  67; 6HR MAX TEMP:  88; 6HR PCP:  0.02;


$$
NMZ524>526-539-540-280700-
SOUTHCENTRAL MOUNTAINS

CITY           SKY/WX    TMP DP  RH WIND       PRES   REMARKS
RUIDOSO        CLOUDY    61  57  88 N10G18    30.34R

$$
NMZ527>531-280700-
NORTHEAST HIGHLANDS/NORTHEAST PLAINS

CITY           SKY/WX    TMP DP  RH WIND       PRES   REMARKS
LAS VEGAS      MOCLDY    60  57  89 N6        30.31F
6HR MIN TEMP:  60; 6HR MAX TEMP:  63; 6HR PCP:  0.22;

RATON          CLOUDY    62  60  93 N7        30.28S
6HR MIN TEMP:  62; 6HR MAX TEMP:  63; 6HR PCP:  0.15;

CLAYTON        FAIR      66  66 100 SE3       30.19S
6HR MIN TEMP:  65; 6HR MAX TEMP:  78;


$$
NMZ532>537-280700-
EASTCENTRAL PLAINS

CITY           SKY/WX    TMP DP  RH WIND       PRES   REMARKS
SANTA ROSA     CLOUDY    67  64  88 NW9       30.18F
TUCUMCARI      FAIR      74  65  73 NW9       30.10R
6HR MIN TEMP:  74; 6HR MAX TEMP:  94; 6HR PCP: TRACE;

CANNON AFB     CLOUDY    77  55  45 E7        30.11R
6HR MIN TEMP:  76; 6HR MAX TEMP:  91;

CLOVIS AIRPORT CLOUDY    75  63  66 NE7       30.11S

$$
NMZ028-029-538-280700-
SOUTHEAST PLAINS

CITY           SKY/WX    TMP DP  RH WIND       PRES   REMARKS
ROSWELL        FAIR      83  51  33 S12       30.04R
6HR MIN TEMP:  83; 6HR MAX TEMP:  98;

ARTESIA        FAIR      82  54  36 S10       30.04R
CARLSBAD       FAIR      83  56  39 SE13      30.01R
6HR MIN TEMP:  83; 6HR MAX TEMP:  98;

HOBBS          FAIR      77  52  41 S9        30.07S


$$



USA.gov is the U.S. government's official web portal to all federal, state and local government web resources and services.